When you browse on this site, cookies collect data to enhance your experience and personalize the content and advertising you see.
Visit our Privacy Policy to learn more. By continuing to use the site, you agree to this use of cookies and data.
  • In Österreich
  • Länderverzeichnis
  • Für 7 Tage
  • Wassertemperatur
  • Wetterkarte
  • News
  • Widgets
  • user-avatar
    Anmelden

    Stündliche Wetter Zorya

    Heute, 17 August, Samstag

    Zeit Temperatur Niederschläge Wind Luftdruck Luftfeuchtigkeit
    00:00 +16°C° 0 mm 5 m/S 747 mmHg 79%
    01:00 +16°C° 0 mm 5 m/S 747 mmHg 80%
    02:00 +17°C° 0 mm 4 m/S 748 mmHg 81%
    03:00 +15°C° 0 mm 4 m/S 748 mmHg 84%
    04:00 +14°C° 0 mm 4 m/S 747 mmHg 87%
    05:00 +13°C° 0 mm 4 m/S 747 mmHg 90%
    06:00 +14°C° 0 mm 4 m/S 747 mmHg 85%
    07:00 +17°C° 0 mm 4 m/S 748 mmHg 80%
    08:00 +18°C° 0 mm 4 m/S 748 mmHg 74%
    09:00 +18°C° 0 mm 4 m/S 748 mmHg 72%
    10:00 +19°C° 0 mm 4 m/S 748 mmHg 70%
    11:00 +20°C° 0 mm 4 m/S 748 mmHg 68%
    12:00 +20°C° 0 mm 5 m/S 748 mmHg 67%
    13:00 +20°C° 0 mm 5 m/S 748 mmHg 65%
    14:00 +21°C° 0 mm 5 m/S 748 mmHg 64%
    15:00 +21°C° 0 mm 5 m/S 748 mmHg 64%
    16:00 +20°C° 0 mm 5 m/S 748 mmHg 65%
    17:00 +20°C° 0 mm 4 m/S 747 mmHg 65%
    18:00 +19°C° 0 mm 4 m/S 748 mmHg 70%
    19:00 +18°C° 0 mm 3 m/S 748 mmHg 74%
    20:00 +17°C° 0 mm 2 m/S 748 mmHg 79%
    21:00 +17°C° 0 mm 3 m/S 748 mmHg 81%
    22:00 +16°C° 0 mm 3 m/S 748 mmHg 84%
    23:00 +14°C° 0 mm 3 m/S 748 mmHg 87%

    Morgen, 18 August, Sonntag

    Zeit Temperatur Niederschläge Wind Luftdruck Luftfeuchtigkeit
    00:00 +14°C° 0 mm 3 m/S 748 mmHg 89%
    01:00 +14°C° 0 mm 3 m/S 748 mmHg 91%
    02:00 +13°C° 0 mm 3 m/S 748 mmHg 93%
    03:00 +13°C° 0 mm 3 m/S 749 mmHg 94%
    04:00 +13°C° 0 mm 3 m/S 749 mmHg 94%
    05:00 +12°C° 0 mm 3 m/S 749 mmHg 95%
    06:00 +14°C° 0 mm 4 m/S 749 mmHg 87%
    07:00 +17°C° 0 mm 4 m/S 749 mmHg 79%
    08:00 +19°C° 0 mm 5 m/S 749 mmHg 71%
    09:00 +20°C° 0 mm 5 m/S 749 mmHg 64%
    10:00 +22°C° 0 mm 5 m/S 750 mmHg 57%
    11:00 +23°C° 0 mm 5 m/S 750 mmHg 50%
    12:00 +25°C° 0 mm 5 m/S 750 mmHg 49%
    13:00 +25°C° 0 mm 5 m/S 750 mmHg 48%
    14:00 +26°C° 0 mm 5 m/S 750 mmHg 47%
    15:00 +25°C° 0 mm 5 m/S 750 mmHg 49%
    16:00 +25°C° 0 mm 5 m/S 750 mmHg 50%
    17:00 +25°C° 0 mm 4 m/S 750 mmHg 52%
    18:00 +22°C° 0 mm 3 m/S 751 mmHg 58%
    19:00 +21°C° 0 mm 3 m/S 751 mmHg 64%
    20:00 +19°C° 0 mm 2 m/S 751 mmHg 70%
    21:00 +19°C° 0 mm 2 m/S 752 mmHg 74%
    22:00 +18°C° 0 mm 2 m/S 752 mmHg 78%
    23:00 +17°C° 0 mm 2 m/S 752 mmHg 82%

    übermorgen, 19 August, Montag

    Zeit Temperatur Niederschläge Wind Luftdruck Luftfeuchtigkeit
    00:00 +17°C° 0 mm 2 m/S 752 mmHg 83%
    01:00 +16°C° 0 mm 2 m/S 752 mmHg 85%
    02:00 +16°C° 0 mm 2 m/S 753 mmHg 86%
    03:00 +16°C° 0 mm 2 m/S 753 mmHg 87%
    04:00 +15°C° 0 mm 2 m/S 753 mmHg 88%
    05:00 +15°C° 0 mm 2 m/S 753 mmHg 88%
    06:00 +17°C° 0 mm 3 m/S 753 mmHg 80%
    07:00 +19°C° 0 mm 3 m/S 754 mmHg 72%
    08:00 +21°C° 0 mm 3 m/S 754 mmHg 64%
    09:00 +22°C° 0 mm 3 m/S 754 mmHg 60%
    10:00 +25°C° 0 mm 3 m/S 754 mmHg 56%
    11:00 +26°C° 0 mm 3 m/S 754 mmHg 51%
    12:00 +27°C° 0 mm 3 m/S 753 mmHg 49%
    13:00 +28°C° 0 mm 3 m/S 753 mmHg 46%
    14:00 +28°C° 0 mm 4 m/S 753 mmHg 43%
    15:00 +28°C° 0 mm 4 m/S 753 mmHg 44%
    16:00 +28°C° 0 mm 4 m/S 753 mmHg 44%
    17:00 +28°C° 0 mm 4 m/S 753 mmHg 45%
    18:00 +26°C° 0 mm 3 m/S 753 mmHg 51%
    19:00 +24°C° 0 mm 3 m/S 753 mmHg 58%
    20:00 +22°C° 0 mm 3 m/S 753 mmHg 65%
    21:00 +21°C° 0 mm 2 m/S 754 mmHg 67%
    22:00 +21°C° 0 mm 2 m/S 754 mmHg 70%
    23:00 +20°C° 0 mm 2 m/S 754 mmHg 72%

    20 August, Dienstag

    Zeit Temperatur Niederschläge Wind Luftdruck Luftfeuchtigkeit
    00:00 +20°C° 0 mm 2 m/S 754 mmHg 75%
    01:00 +19°C° 0 mm 2 m/S 754 mmHg 77%
    02:00 +19°C° 0 mm 2 m/S 754 mmHg 79%
    03:00 +18°C° 0 mm 2 m/S 754 mmHg 82%
    04:00 +18°C° 0 mm 2 m/S 754 mmHg 84%
    05:00 +18°C° 0 mm 3 m/S 754 mmHg 87%
    06:00 +20°C° 0 mm 3 m/S 754 mmHg 79%
    07:00 +22°C° 0 mm 3 m/S 754 mmHg 71%
    08:00 +25°C° 0 mm 3 m/S 754 mmHg 63%
    09:00 +27°C° 0 mm 4 m/S 754 mmHg 57%
    10:00 +28°C° 0 mm 4 m/S 754 mmHg 52%
    11:00 +30°C° 0 mm 5 m/S 754 mmHg 46%
    12:00 +30°C° 0 mm 5 m/S 754 mmHg 45%
    13:00 +32°C° 0 mm 5 m/S 754 mmHg 44%
    14:00 +32°C° 0 mm 5 m/S 753 mmHg 42%
    15:00 +32°C° 0 mm 5 m/S 753 mmHg 44%
    16:00 +30°C° 0 mm 5 m/S 753 mmHg 45%
    17:00 +30°C° 0 mm 5 m/S 753 mmHg 47%
    18:00 +28°C° 0 mm 4 m/S 753 mmHg 52%
    19:00 +27°C° 0 mm 4 m/S 753 mmHg 57%
    20:00 +25°C° 0 mm 3 m/S 753 mmHg 62%
    21:00 +24°C° 0 mm 3 m/S 753 mmHg 66%
    22:00 +24°C° 0 mm 3 m/S 753 mmHg 70%
    23:00 +22°C° 0 mm 3 m/S 754 mmHg 73%

    21 August, Mittwoch

    Zeit Temperatur Niederschläge Wind Luftdruck Luftfeuchtigkeit
    00:00 +22°C° 0 mm 3 m/S 754 mmHg 77%
    01:00 +21°C° 0 mm 3 m/S 753 mmHg 80%
    02:00 +21°C° 0 mm 3 m/S 753 mmHg 84%
    03:00 +20°C° 0 mm 3 m/S 753 mmHg 86%
    04:00 +20°C° 0 mm 3 m/S 753 mmHg 89%
    05:00 +20°C° 0 mm 3 m/S 753 mmHg 91%
    06:00 +22°C° 0 mm 4 m/S 753 mmHg 82%
    07:00 +23°C° 0 mm 4 m/S 753 mmHg 74%
    08:00 +26°C° 0 mm 5 m/S 753 mmHg 65%
    09:00 +28°C° 0 mm 4 m/S 753 mmHg 58%
    10:00 +30°C° 0 mm 4 m/S 752 mmHg 51%
    11:00 +32°C° 0 mm 4 m/S 752 mmHg 44%
    12:00 +33°C° 0 mm 4 m/S 752 mmHg 42%
    13:00 +34°C° 0 mm 4 m/S 751 mmHg 39%
    14:00 +35°C° 0 mm 4 m/S 751 mmHg 36%
    15:00 +34°C° 0 mm 4 m/S 751 mmHg 37%
    16:00 +34°C° 0 mm 5 m/S 750 mmHg 38%
    17:00 +33°C° 0 mm 5 m/S 750 mmHg 39%
    18:00 +32°C° 0 mm 5 m/S 750 mmHg 44%
    19:00 +29°C° 0 mm 4 m/S 750 mmHg 48%
    20:00 +27°C° 0 mm 4 m/S 750 mmHg 52%
    21:00 +27°C° 0 mm 4 m/S 751 mmHg 55%
    22:00 +26°C° 0 mm 4 m/S 751 mmHg 57%
    23:00 +25°C° 0 mm 4 m/S 751 mmHg 60%

    22 August, Donnerstag

    Zeit Temperatur Niederschläge Wind Luftdruck Luftfeuchtigkeit
    00:00 +25°C° 0 mm 4 m/S 751 mmHg 63%
    01:00 +25°C° 0 mm 5 m/S 751 mmHg 66%
    02:00 +23°C° 0 mm 5 m/S 751 mmHg 69%
    03:00 +23°C° 0 mm 5 m/S 751 mmHg 71%
    04:00 +23°C° 0 mm 5 m/S 751 mmHg 74%
    05:00 +22°C° 0 mm 6 m/S 751 mmHg 76%
    06:00 +23°C° 0 mm 6 m/S 751 mmHg 72%
    07:00 +24°C° 0 mm 7 m/S 752 mmHg 68%
    08:00 +26°C° 0 mm 8 m/S 752 mmHg 64%
    09:00 +27°C° 0 mm 8 m/S 752 mmHg 60%
    10:00 +28°C° 0 mm 8 m/S 752 mmHg 56%
    11:00 +31°C° 0 mm 8 m/S 752 mmHg 53%
    12:00 +31°C° 0 mm 8 m/S 751 mmHg 51%
    13:00 +32°C° 0 mm 8 m/S 751 mmHg 49%
    14:00 +32°C° 0 mm 8 m/S 751 mmHg 47%
    15:00 +32°C° 0 mm 8 m/S 751 mmHg 49%
    16:00 +31°C° 0 mm 8 m/S 751 mmHg 52%
    17:00 +31°C° 0 mm 8 m/S 751 mmHg 54%
    18:00 +28°C° 0.1 mm 8 m/S 751 mmHg 59%
    19:00 +27°C° 0.1 mm 8 m/S 751 mmHg 64%
    20:00 +24°C° 0.1 mm 8 m/S 752 mmHg 70%
    21:00 +23°C° 0.1 mm 8 m/S 752 mmHg 73%
    22:00 +22°C° 0.1 mm 8 m/S 752 mmHg 76%
    23:00 +21°C° 0.1 mm 8 m/S 752 mmHg 79%
    Mehr zeigen